Regional Weather Roundup
Issued by NWS New Orleans/Baton Rouge, LA

Home | Current Version | Previous Version | Text Only | Print | Product List | Glossary On
Versions: 1 2 3 4 5 6 7 8 9 10 11 12 13 14 15 16 17 18 19 20 21 22 23 24 25 26 27 28 29 30 31 32 33 34 35 36 37 38 39 40 41 42 43 44 45 46 47 48 49 50
000
ASUS44 KLIX 260111
RWRLIX
NEW ORLEANS REGIONAL WEATHER ROUNDUP
NATIONAL WEATHER SERVICE NEW ORLEANS LA
800 PM CDT SAT APR 25 2015

NOTE: "FAIR" INDICATES FEW OR NO CLOUDS BELOW 12,000 FEET WITH NO
      SIGNIFICANT WEATHER AND/OR OBSTRUCTIONS TO VISIBILITY.
      SKY/WX - SKY CONDITION AND SIGNIFICANT WEATHER.
      TMP - AIR TEMPERATURE.     DP    - DEWPOINT TEMPERATURE.
      RH  - RELATIVE HUMIDITY.   PRES  - PRESSURE.
      HI  - HEAT INDEX.          WCI   - WIND CHILL INDEX.

*  THESE STATIONS ARE NOT NWS OR FAA STATIONS AND ARE NOT UNDER
   NWS QUALITY CONTROL.

LAZ038-040-048-061>063-065>067-069-260200-
SOUTHEAST LOUISIANA

CITY           SKY/WX    TMP DP  RH WIND       PRES   REMARKS
N.O. AUDUBON     N/A     73  70  89 MISG        N/A
N.O. INTL ARPT MOCLDY    73  63  70 SW12      29.70S
N.O. LAKEFRONT CLEAR     77  65  66 SW12      29.70R
SLIDELL        PTCLDY    73  67  81 CALM      29.70R
BATON ROUGE    CLEAR     70  66  87 SW6       29.71R
BOOTHVILLE     MOCLDY    75  68  78 S12       29.71F
BELLE CHASSE   MOCLDY    70  66  87 SW5       29.70R
BOGALUSA*        N/A     72  65  78 CALM      29.71S
GALLIANO*      MOCLDY    72  68  88 CALM      29.73R
NEW ROADS*       N/A     73  66  79 S3        29.71S
GONZALES*        N/A    N/A N/A N/A CALM      29.71R
HAMMOND*       PTCLDY    72  66  83 CALM      29.73R
HOUMA*         MOCLDY    71  68  92 CALM      29.72S
PORT FOURCHON* CLEAR     75  70  83 S9        29.76R

$$

MSZ070-080>082-260200-
SOUTHERN MISSISSIPPI

CITY           SKY/WX    TMP DP  RH WIND       PRES   REMARKS
MCCOMB         CLEAR     69  66  90 SW3       29.71R
GULFPORT       CLOUDY    70  67  90 CALM      29.69R
BILOXI         CLOUDY    72  68  86 CALM      29.69R
PASCAGOULA     CLOUDY    70  68  93 CALM      29.70R
STENNIS ARPT*  CLEAR     73  63  68 MISG      29.70R

$$

COASTAL OBSERVATIONS
LAKE AND NEARSHORE STATIONS

STATION/POSITION TIME  TEMP    WIND        PRES    WAVE
                       AIR SEA DIR/SP/G            HT/PER
                 (UTC) (F)     (DEG/KT/KT) (MB)    (FT/S)
PASCAGOULA       0000   78     300/  7/ 12 1004.7
WAVELAND YACHT   0000   76 75  260/  6/ 10 1005.4
GRAND ISLE       0000   76 78  170/ 10/ 15 1005.0
SOUTHWEST PASS   0000   76 67  140/  4/  6 1008.7
NEW CANAL        0000   76     210/  8/ 12 1005.9
SHELL BEACH      0000   75 76  170/  8/ 10 1004.2

OFFSHORE STATIONS

STATION/POSITION TIME  TEMP    WIND        PRES    WAVE
                       AIR SEA DIR/SP/G            HT/PER
                 (UTC) (F)     (DEG/KT/KT) (MB)    (FT/S)
64 S DAUPHIN ISL 0050   76 77  170/ 12/ 14 1007.9    5/ 5

$$



USA.gov is the U.S. government's official web portal to all federal, state and local government web resources and services.